Total_Precipitation_Accumulation
1.99 2.01 1.54 0.96 0.73 0.58 0.53 0.56 0.49 0.43 0.41 0.55 0.60 0.58 0.59 0.56 0.54 0.57 0.59 0.60 0.70 0.85 0.98 1.16 1.35 1.69 1.93 2.22 2.51 2.57 2.79 2.95 3.11 3.21 3.16 2.98 2.77 2.63 2.54 2.49 2.43 2.25 2.05 1.92
1.91 1.51 0.83 0.65 0.67 0.67 0.66 0.69 0.55 0.46 0.41 0.51 0.54 0.52 0.57 0.62 0.59 0.53 0.51 0.53 0.58 0.72 0.84 0.96 1.13 1.41 1.62 1.80 2.00 2.16 2.33 2.55 2.74 2.85 2.84 2.87 2.90 2.75 2.56 2.49 2.46 2.43 2.34 2.17
1.36 0.89 0.62 0.70 0.80 0.88 0.78 0.71 0.59 0.53 0.47 0.53 0.55 0.57 0.53 0.55 0.57 0.54 0.52 0.52 0.58 0.71 0.73 0.80 0.92 1.17 1.34 1.47 1.66 1.82 1.98 2.13 2.23 2.57 2.83 2.85 2.94 2.87 2.58 2.34 2.19 2.28 2.41 2.40
1.13 0.68 0.69 0.85 0.81 0.83 0.87 0.54 0.53 0.57 0.76 0.82 0.60 0.76 0.55 0.49 0.51 0.54 0.55 0.56 0.65 0.73 0.76 0.80 0.85 1.01 1.10 1.17 1.36 1.57 1.77 1.93 1.97 2.21 2.47 2.49 2.37 2.33 2.22 2.15 2.19 2.24 2.31 2.40
1.19 0.76 0.78 0.93 0.69 0.70 0.72 0.53 0.62 0.70 0.84 0.89 0.59 0.69 0.62 0.48 0.56 0.58 0.58 0.61 0.67 0.66 0.69 0.79 0.82 0.86 0.95 0.97 1.06 1.26 1.57 1.74 1.80 1.85 2.04 2.25 2.29 2.24 2.25 2.24 2.23 2.18 2.10 2.16
0.89 0.78 0.87 0.81 0.60 0.68 0.75 0.86 0.98 1.02 1.31 1.33 0.55 0.59 0.62 0.55 0.60 0.58 0.53 0.58 0.60 0.59 0.63 0.71 0.72 0.75 0.87 0.86 0.86 1.00 1.20 1.51 1.69 1.75 1.81 1.94 2.01 1.99 2.03 2.11 2.15 2.17 2.07 1.97
1.08 0.89 0.82 0.82 0.99 1.00 1.19 1.75 2.22 2.10 1.91 1.02 0.34 0.45 0.63 0.54 0.52 0.56 0.54 0.51 0.53 0.57 0.58 0.64 0.69 0.77 0.82 0.80 0.75 0.80 0.94 1.19 1.43 1.53 1.54 1.62 1.76 1.81 1.78 1.83 1.96 2.00 1.96 1.86
1.17 1.04 0.75 0.85 1.15 1.23 1.15 1.50 1.73 1.39 0.90 0.49 0.33 0.46 0.56 0.47 0.46 0.45 0.40 0.39 0.44 0.51 0.50 0.54 0.59 0.65 0.67 0.67 0.69 0.73 0.83 0.94 1.06 1.17 1.26 1.36 1.47 1.56 1.53 1.53 1.64 1.72 1.70 1.70
0.98 0.81 0.51 0.61 0.76 0.92 1.12 1.17 1.01 1.21 0.82 0.56 0.42 0.43 0.45 0.34 0.34 0.35 0.34 0.34 0.38 0.40 0.39 0.41 0.47 0.49 0.48 0.51 0.58 0.64 0.67 0.75 0.85 0.93 1.02 1.14 1.19 1.31 1.38 1.40 1.47 1.56 1.57 1.53
0.95 0.98 0.58 0.63 0.88 1.00 1.03 0.99 1.19 1.79 1.40 0.81 0.44 0.39 0.47 0.39 0.36 0.38 0.36 0.34 0.34 0.31 0.32 0.35 0.41 0.44 0.44 0.43 0.42 0.46 0.55 0.68 0.76 0.77 0.85 0.97 1.04 1.08 1.17 1.26 1.31 1.35 1.32 1.30
0.84 1.18 0.84 0.84 1.10 1.06 1.05 1.26 1.39 1.47 1.20 1.04 0.71 0.57 0.49 0.40 0.38 0.39 0.39 0.34 0.32 0.30 0.32 0.32 0.34 0.38 0.45 0.43 0.38 0.38 0.45 0.56 0.65 0.67 0.72 0.78 0.87 0.93 0.97 1.01 1.06 1.11 1.12 1.12
0.82 1.32 1.06 0.73 0.64 0.70 0.89 1.02 1.25 1.67 1.28 0.97 0.83 0.66 0.44 0.36 0.35 0.36 0.36 0.35 0.34 0.34 0.35 0.32 0.30 0.32 0.42 0.45 0.42 0.41 0.44 0.49 0.56 0.61 0.66 0.72 0.74 0.79 0.87 0.92 0.90 0.91 0.95 0.98
1.10 1.59 1.46 1.05 0.91 0.92 1.05 0.93 0.97 1.35 1.65 1.30 1.03 0.70 0.42 0.32 0.30 0.31 0.32 0.34 0.36 0.37 0.37 0.36 0.32 0.31 0.37 0.44 0.44 0.42 0.45 0.48 0.51 0.58 0.61 0.66 0.69 0.69 0.74 0.82 0.84 0.84 0.87 0.93
1.36 1.60 1.33 1.12 1.06 1.08 1.02 0.82 0.93 1.64 2.06 1.23 0.71 0.49 0.35 0.33 0.37 0.36 0.34 0.34 0.38 0.40 0.39 0.39 0.42 0.38 0.37 0.41 0.41 0.38 0.42 0.45 0.47 0.53 0.57 0.59 0.65 0.67 0.67 0.70 0.75 0.79 0.80 0.85
1.12 1.46 0.99 0.65 0.52 0.70 0.75 0.74 0.86 1.24 1.27 1.21 0.71 0.45 0.40 0.41 0.46 0.44 0.39 0.34 0.33 0.36 0.37 0.37 0.39 0.42 0.41 0.39 0.40 0.37 0.38 0.40 0.42 0.48 0.53 0.55 0.60 0.64 0.67 0.68 0.71 0.76 0.77 0.81
0.91 1.21 0.98 0.71 0.44 0.54 0.63 0.61 0.64 0.76 0.82 0.83 0.62 0.57 0.47 0.44 0.41 0.39 0.37 0.33 0.33 0.34 0.36 0.36 0.33 0.35 0.36 0.40 0.41 0.41 0.40 0.38 0.41 0.44 0.48 0.51 0.55 0.58 0.63 0.67 0.69 0.71 0.76 0.82
0.82 1.07 1.24 0.88 0.50 0.63 0.78 0.71 0.70 0.71 0.71 0.72 0.76 0.68 0.54 0.49 0.45 0.42 0.39 0.35 0.34 0.31 0.29 0.31 0.30 0.32 0.33 0.35 0.37 0.39 0.39 0.37 0.39 0.43 0.45 0.48 0.53 0.57 0.60 0.66 0.72 0.79 0.84 0.93
0.57 0.92 1.37 1.02 0.71 0.92 0.74 0.57 0.58 0.62 0.65 0.68 0.66 0.56 0.51 0.49 0.46 0.44 0.40 0.34 0.31 0.29 0.26 0.25 0.25 0.25 0.25 0.27 0.30 0.34 0.35 0.36 0.38 0.42 0.49 0.52 0.55 0.64 0.70 0.72 0.79 0.88 0.95 1.03
0.33 0.78 1.32 1.17 0.90 0.62 0.42 0.40 0.53 0.62 0.66 0.63 0.51 0.41 0.38 0.38 0.39 0.40 0.35 0.30 0.29 0.28 0.29 0.28 0.26 0.25 0.25 0.26 0.29 0.34 0.37 0.38 0.38 0.41 0.48 0.54 0.57 0.69 0.77 0.77 0.81 0.89 0.95 1.01
0.31 0.64 1.29 1.23 1.05 0.60 0.42 0.27 0.29 0.48 0.71 0.51 0.43 0.42 0.41 0.41 0.48 0.42 0.33 0.29 0.30 0.28 0.27 0.30 0.31 0.28 0.30 0.32 0.33 0.38 0.43 0.50 0.51 0.51 0.55 0.62 0.70 0.81 0.85 0.84 0.84 0.83 0.84 0.85
0.49 0.89 1.19 1.04 0.98 0.54 0.37 0.24 0.25 0.64 0.78 0.41 0.39 0.41 0.44 0.47 0.48 0.40 0.30 0.27 0.31 0.32 0.30 0.31 0.35 0.36 0.38 0.40 0.40 0.42 0.47 0.59 0.65 0.67 0.67 0.71 0.77 0.81 0.83 0.81 0.77 0.74 0.70 0.70
0.48 0.67 0.74 0.78 1.01 0.75 0.39 0.31 0.56 0.71 0.43 0.36 0.37 0.41 0.44 0.42 0.35 0.30 0.30 0.29 0.28 0.29 0.30 0.33 0.40 0.43 0.43 0.48 0.53 0.53 0.55 0.61 0.66 0.70 0.69 0.69 0.69 0.70 0.74 0.75 0.73 0.69 0.67 0.66
0.51 0.64 0.67 0.70 0.79 0.68 0.52 0.55 0.56 0.46 0.41 0.36 0.37 0.38 0.39 0.38 0.36 0.30 0.27 0.27 0.29 0.31 0.32 0.36 0.44 0.49 0.51 0.51 0.55 0.58 0.55 0.55 0.59 0.63 0.65 0.62 0.58 0.58 0.60 0.63 0.66 0.66 0.65 0.64
0.47 0.39 0.49 0.59 0.60 0.51 0.47 0.42 0.38 0.37 0.40 0.36 0.33 0.35 0.37 0.39 0.36 0.32 0.29 0.29 0.28 0.29 0.31 0.34 0.39 0.43 0.46 0.47 0.48 0.49 0.46 0.45 0.47 0.51 0.56 0.57 0.53 0.52 0.52 0.52 0.58 0.61 0.62 0.62
0.50 0.43 0.46 0.52 0.48 0.39 0.38 0.38 0.37 0.34 0.31 0.28 0.27 0.27 0.32 0.34 0.33 0.32 0.33 0.32 0.31 0.30 0.31 0.32 0.36 0.41 0.43 0.42 0.43 0.42 0.41 0.41 0.44 0.44 0.47 0.49 0.51 0.52 0.53 0.55 0.58 0.62 0.63 0.69
0.41 0.45 0.53 0.59 0.47 0.46 0.47 0.40 0.35 0.34 0.33 0.31 0.28 0.27 0.26 0.28 0.31 0.29 0.31 0.30 0.30 0.34 0.33 0.32 0.33 0.38 0.44 0.43 0.41 0.40 0.40 0.41 0.45 0.47 0.47 0.48 0.51 0.53 0.54 0.54 0.59 0.65 0.67 0.72